• In Uzbekistan
  • List of Countries
  • For 7 days
  • Water Temperature
  • Satellite Maps
  • Weather Map
  • Weather Widgets
  • user-avatar
    Login

    Hourly Weather Artashat

    Today, 27 April, Thursday

    Time Temperature Precipitation Wind Pressure Humidity
    00:00 +3°C° 0 mm 1 mps 605 mmHg 61%
    01:00 +2°C° 0 mm 1 mps 605 mmHg 63%
    02:00 +2°C° 0 mm 1 mps 605 mmHg 65%
    03:00 +1°C° 0 mm 1 mps 604 mmHg 69%
    04:00 +2°C° 0 mm 1 mps 605 mmHg 69%
    05:00 +2°C° 0 mm 1 mps 605 mmHg 68%
    06:00 +2°C° 0 mm 1 mps 605 mmHg 68%
    07:00 +4°C° 0 mm 1 mps 605 mmHg 59%
    08:00 +5°C° 0 mm 2 mps 606 mmHg 51%
    09:00 +6°C° 0 mm 2 mps 606 mmHg 41%
    10:00 +8°C° 0 mm 2 mps 606 mmHg 37%
    11:00 +9°C° 0 mm 3 mps 607 mmHg 33%
    12:00 +10°C° 0 mm 3 mps 607 mmHg 29%
    13:00 +11°C° 0 mm 3 mps 607 mmHg 27%
    14:00 +11°C° 0 mm 3 mps 607 mmHg 26%
    15:00 +11°C° 0 mm 3 mps 606 mmHg 30%
    16:00 +10°C° 0 mm 3 mps 606 mmHg 32%
    17:00 +10°C° 0 mm 3 mps 606 mmHg 34%
    18:00 +9°C° 0 mm 2 mps 606 mmHg 36%
    19:00 +8°C° 0 mm 2 mps 606 mmHg 41%
    20:00 +6°C° 0 mm 2 mps 606 mmHg 46%
    21:00 +6°C° 0 mm 1 mps 605 mmHg 50%
    22:00 +5°C° 0 mm 1 mps 605 mmHg 53%
    23:00 +5°C° 0 mm 1 mps 605 mmHg 56%

    Tomorrow, 28 April, Friday

    Time Temperature Precipitation Wind Pressure Humidity
    00:00 +4°C° 0 mm 1 mps 605 mmHg 58%
    01:00 +4°C° 0 mm 1 mps 605 mmHg 60%
    02:00 +3°C° 0 mm 1 mps 604 mmHg 62%
    03:00 +3°C° 0 mm 1 mps 604 mmHg 64%
    04:00 +3°C° 0 mm 1 mps 604 mmHg 64%
    05:00 +3°C° 0 mm 1 mps 604 mmHg 64%
    06:00 +4°C° 0 mm 1 mps 604 mmHg 64%
    07:00 +6°C° 0 mm 1 mps 605 mmHg 57%
    08:00 +8°C° 0 mm 1 mps 605 mmHg 50%
    09:00 +10°C° 0 mm 1 mps 606 mmHg 44%
    10:00 +10°C° 0 mm 2 mps 606 mmHg 41%
    11:00 +12°C° 0 mm 2 mps 606 mmHg 38%
    12:00 +13°C° 0 mm 2 mps 606 mmHg 35%
    13:00 +14°C° 0 mm 2 mps 606 mmHg 34%
    14:00 +15°C° 0 mm 2 mps 606 mmHg 33%
    15:00 +15°C° 0 mm 2 mps 605 mmHg 32%
    16:00 +15°C° 0 mm 2 mps 605 mmHg 35%
    17:00 +14°C° 0 mm 2 mps 605 mmHg 38%
    18:00 +13°C° 0 mm 2 mps 604 mmHg 41%
    19:00 +12°C° 0 mm 2 mps 604 mmHg 46%
    20:00 +10°C° 0 mm 1 mps 604 mmHg 51%
    21:00 +9°C° 0 mm 1 mps 603 mmHg 56%
    22:00 +8°C° 0 mm 1 mps 603 mmHg 59%
    23:00 +8°C° 0 mm 1 mps 603 mmHg 61%

    Day after tomorrow, 29 April, Saturday

    Time Temperature Precipitation Wind Pressure Humidity
    00:00 +7°C° 0 mm 1 mps 603 mmHg 64%
    01:00 +7°C° 0 mm 1 mps 602 mmHg 66%
    02:00 +6°C° 0 mm 1 mps 602 mmHg 68%
    03:00 +6°C° 0 mm 1 mps 602 mmHg 70%
    04:00 +6°C° 0 mm 1 mps 602 mmHg 70%
    05:00 +6°C° 0 mm 1 mps 602 mmHg 70%
    06:00 +6°C° 0 mm 1 mps 602 mmHg 70%
    07:00 +8°C° 0 mm 1 mps 602 mmHg 62%
    08:00 +10°C° 0 mm 1 mps 603 mmHg 55%
    09:00 +12°C° 0 mm 2 mps 604 mmHg 47%
    10:00 +14°C° 0.1 mm 2 mps 604 mmHg 42%
    11:00 +15°C° 0.1 mm 2 mps 604 mmHg 38%
    12:00 +16°C° 0.1 mm 2 mps 604 mmHg 33%
    13:00 +17°C° 0.1 mm 3 mps 604 mmHg 31%
    14:00 +17°C° 0.1 mm 3 mps 604 mmHg 29%
    15:00 +18°C° 0.1 mm 3 mps 604 mmHg 26%
    16:00 +17°C° 0.2 mm 3 mps 604 mmHg 30%
    17:00 +16°C° 0.2 mm 2 mps 603 mmHg 33%
    18:00 +15°C° 0.2 mm 2 mps 603 mmHg 36%
    19:00 +14°C° 0.2 mm 2 mps 603 mmHg 40%
    20:00 +12°C° 0.2 mm 1 mps 602 mmHg 45%
    21:00 +10°C° 0.2 mm 1 mps 602 mmHg 49%
    22:00 +10°C° 0.1 mm 1 mps 602 mmHg 50%
    23:00 +9°C° 0.1 mm 1 mps 602 mmHg 50%

    30 April, Sunday

    Time Temperature Precipitation Wind Pressure Humidity
    00:00 +8°C° 0.1 mm 1 mps 601 mmHg 51%
    01:00 +8°C° 0 mm 1 mps 601 mmHg 52%
    02:00 +7°C° 0 mm 1 mps 601 mmHg 53%
    03:00 +7°C° 0 mm 1 mps 600 mmHg 54%
    04:00 +7°C° 0 mm 1 mps 601 mmHg 54%
    05:00 +7°C° 0 mm 1 mps 601 mmHg 54%
    06:00 +7°C° 0 mm 1 mps 601 mmHg 54%
    07:00 +10°C° 0 mm 1 mps 602 mmHg 47%
    08:00 +12°C° 0 mm 1 mps 603 mmHg 41%
    09:00 +14°C° 0 mm 1 mps 604 mmHg 34%
    10:00 +15°C° 0 mm 2 mps 604 mmHg 31%
    11:00 +17°C° 0 mm 2 mps 605 mmHg 28%
    12:00 +18°C° 0 mm 3 mps 605 mmHg 24%
    13:00 +18°C° 0 mm 3 mps 605 mmHg 23%
    14:00 +19°C° 0 mm 3 mps 605 mmHg 22%
    15:00 +19°C° 0 mm 3 mps 604 mmHg 21%
    16:00 +18°C° 0 mm 3 mps 604 mmHg 24%
    17:00 +17°C° 0 mm 2 mps 604 mmHg 27%
    18:00 +16°C° 0 mm 1 mps 604 mmHg 30%
    19:00 +15°C° 0 mm 1 mps 603 mmHg 33%
    20:00 +13°C° 0 mm 1 mps 603 mmHg 36%
    21:00 +11°C° 0 mm 1 mps 602 mmHg 40%
    22:00 +10°C° 0 mm 1 mps 602 mmHg 41%
    23:00 +10°C° 0 mm 1 mps 602 mmHg 43%

    1 May, Monday

    Time Temperature Precipitation Wind Pressure Humidity
    00:00 +9°C° 0 mm 1 mps 601 mmHg 45%
    01:00 +8°C° 0 mm 1 mps 601 mmHg 46%
    02:00 +8°C° 0 mm 1 mps 601 mmHg 47%
    03:00 +8°C° 0 mm 1 mps 601 mmHg 48%
    04:00 +8°C° 0 mm 1 mps 601 mmHg 49%
    05:00 +8°C° 0 mm 1 mps 601 mmHg 50%
    06:00 +8°C° 0 mm 1 mps 601 mmHg 51%
    07:00 +10°C° 0 mm 1 mps 602 mmHg 46%
    08:00 +13°C° 0 mm 1 mps 603 mmHg 40%
    09:00 +15°C° 0 mm 1 mps 604 mmHg 35%
    10:00 +16°C° 0 mm 2 mps 605 mmHg 31%
    11:00 +18°C° 0 mm 2 mps 605 mmHg 28%
    12:00 +19°C° 0 mm 2 mps 605 mmHg 24%
    13:00 +19°C° 0 mm 2 mps 605 mmHg 23%
    14:00 +20°C° 0 mm 2 mps 605 mmHg 21%
    15:00 +20°C° 0 mm 2 mps 605 mmHg 20%
    16:00 +19°C° 0 mm 2 mps 605 mmHg 23%
    17:00 +18°C° 0 mm 2 mps 605 mmHg 26%
    18:00 +17°C° 0 mm 2 mps 604 mmHg 30%
    19:00 +16°C° 0 mm 2 mps 604 mmHg 33%
    20:00 +14°C° 0 mm 2 mps 603 mmHg 36%
    21:00 +12°C° 0 mm 2 mps 603 mmHg 39%
    22:00 +12°C° 0 mm 1 mps 603 mmHg 41%
    23:00 +11°C° 0 mm 1 mps 602 mmHg 43%

    2 May, Tuesday

    Time Temperature Precipitation Wind Pressure Humidity
    00:00 +10°C° 0 mm 1 mps 602 mmHg 45%
    01:00 +10°C° 0 mm 1 mps 602 mmHg 47%
    02:00 +10°C° 0 mm 1 mps 602 mmHg 48%
    03:00 +9°C° 0 mm 1 mps 602 mmHg 50%
    04:00 +9°C° 0 mm 1 mps 602 mmHg 51%
    05:00 +10°C° 0 mm 1 mps 602 mmHg 52%
    06:00 +10°C° 0 mm 1 mps 602 mmHg 53%
    07:00 +12°C° 0 mm 1 mps 603 mmHg 49%
    08:00 +13°C° 0 mm 2 mps 604 mmHg 45%
    09:00 +15°C° 0 mm 2 mps 604 mmHg 41%
    10:00 +16°C° 0.1 mm 3 mps 604 mmHg 38%
    11:00 +17°C° 0.1 mm 3 mps 605 mmHg 36%
    12:00 +19°C° 0.1 mm 4 mps 605 mmHg 33%
    13:00 +19°C° 0.5 mm 4 mps 605 mmHg 33%
    14:00 +19°C° 0.5 mm 3 mps 604 mmHg 33%
    15:00 +19°C° 0.5 mm 3 mps 604 mmHg 33%
    16:00 +18°C° 0.4 mm 2 mps 604 mmHg 35%
    17:00 +18°C° 0.4 mm 2 mps 604 mmHg 38%
    18:00 +18°C° 0.4 mm 1 mps 604 mmHg 41%
    19:00 +15°C° 0.2 mm 1 mps 603 mmHg 48%
    20:00 +14°C° 0.2 mm 1 mps 603 mmHg 54%
    21:00 +13°C° 0.2 mm 1 mps 603 mmHg 61%
    22:00 +12°C° 0.1 mm 1 mps 602 mmHg 64%
    23:00 +11°C° 0.1 mm 1 mps 602 mmHg 68%
    Show more